Location: Torrington
(42.0650°N, 104.1810°W)
Time: 14:45:20
(UTC-07:00)

Amateur Radio Satellites - All Passes

Search period start: 03 December 2016 14:15
Search period end: 04 December 2016 14:15
Location: Torrington, 42.0650°N, 104.1810°W

Satellite Date Start Highest point End Downlink Frequencies (MHz)
Time Altitude Azimuth
BEESAT 3 03 Dec 14:20:30 14:24:30 79° 56° (ENE) 14:28:29 437.485
RS-15 03 Dec 14:32:45 14:43:46 35° 30° (NNE) 14:54:34 29.354- 29.394
BEESAT 2 03 Dec 14:43:12 14:47:14 63° 55° (NE) 14:51:13 435.950
AUBIESAT-1 03 Dec 14:55:28 15:00:07 82° 292° (WNW) 15:04:36 437.475
TISAT 1 03 Dec 14:56:59 14:59:07 14° 297° (WNW) 15:01:15 437.305
ITAMSAT 1 03 Dec 14:59:01 15:03:46 35° 263° (W) 15:08:32 435.822/435.867
MOZHAYETS 4 03 Dec 14:59:23 15:03:23 29° 96° (E) 15:07:20
SWISSCUBE 03 Dec 14:59:59 15:04:41 62° 287° (WNW) 15:09:22 437.505
BEESAT 03 Dec 15:04:21 15:09:04 62° 287° (WNW) 15:13:44 436.000
M-CUBED/EXP-1 PRIME 03 Dec 15:05:13 15:09:49 54° 293° (WNW) 15:14:17 437.505
ITUPSAT 1 03 Dec 15:30:20 15:34:39 36° 292° (WNW) 15:38:58 437.325
AO-7 03 Dec 15:47:12 15:54:37 36° 263° (W) 16:02:07 29.400- 29.500
KKS-1 03 Dec 15:50:34 15:54:50 42° 99° (E) 15:59:05 437.445
GOMX 1 03 Dec 15:51:59 15:55:06 18° 63° (ENE) 15:58:21 467.674
BRITE-PL 03 Dec 16:00:12 16:04:16 48° 72° (ENE) 16:08:37 437.365/2234.400
NOAA 18 03 Dec 16:00:21 16:02:11 12° 55° (NE) 16:04:02 137.9125
HORYU 2 03 Dec 16:03:25 16:07:43 47° 72° (ENE) 16:12:02 437.375
STARS 03 Dec 16:04:55 16:08:44 28° 96° (E) 16:12:31 437.465
CUTE-I 03 Dec 16:12:57 16:16:55 21° 62° (ENE) 16:20:52 437.470
DOVE 4 03 Dec 16:17:30 16:20:16 15° 61° (ENE) 16:23:06 437.250
BEESAT 2 03 Dec 16:22:57 16:24:30 12° 251° (WSW) 16:26:02 435.950
O/OREOS (USA 219) 03 Dec 16:25:52 16:30:26 81° 109° (ESE) 16:35:00 437.305
CUBESAT XI-V 03 Dec 16:30:58 16:35:20 39° 98° (E) 16:39:42 437.345
AUBIESAT-1 03 Dec 16:32:28 16:33:42 11° 307° (NW) 16:34:57 437.475
MOZHAYETS 4 03 Dec 16:36:36 16:40:27 28° 292° (WNW) 16:44:18
Cubesat XI-IV 03 Dec 16:36:57 16:41:43 33° 67° (ENE) 16:46:30 437.490
NOAA 15 03 Dec 16:43:59 16:48:53 42° 69° (ENE) 16:53:49 137.62
AIST 2 03 Dec 16:45:06 16:48:59 34° 50° (NE) 16:52:52 435.215
RS-15 03 Dec 16:45:45 16:58:14 87° 58° (ENE) 17:10:16 29.354- 29.394
LilacSat-2 03 Dec 16:48:57 16:52:28 35° 72° (ENE) 16:56:00 437.200
Cosmos 2491 03 Dec 17:15:17 17:23:14 37° 71° (ENE) 17:31:08 435.465 / 435.565
ISS 03 Dec 17:15:57 17:19:13 73° 143° (SE) 17:22:31 145.825
HO-68 03 Dec 17:19:12 17:24:32 23° 57° (ENE) 17:29:54 435.675
KKS-1 03 Dec 17:27:51 17:31:06 20° 295° (WNW) 17:34:19 437.445
GOMX 1 03 Dec 17:28:25 17:32:44 48° 262° (W) 17:37:24 467.674
CANX-2 03 Dec 17:34:01 17:36:04 13° 63° (ENE) 17:38:08 2200.000
NOAA 18 03 Dec 17:36:22 17:41:53 75° 73° (ENE) 17:47:27 137.9125
BRITE-PL 03 Dec 17:40:46 17:43:10 15° 271° (W) 17:45:38 437.365/2234.400
STARS 03 Dec 17:41:14 17:45:01 28° 292° (WNW) 17:48:46 437.465
HORYU 2 03 Dec 17:41:37 17:44:30 17° 268° (W) 17:47:24 437.375
YUBILEINY 03 Dec 17:46:24 17:52:39 23° 79° (E) 17:58:54 435.215
CUTE-I 03 Dec 17:51:18 17:56:33 55° 260° (W) 18:01:50 437.470
DOVE 4 03 Dec 17:52:37 17:57:17 67° 259° (W) 18:02:18 437.250
CINEMA 3 03 Dec 17:54:29 17:58:55 36° 69° (ENE) 18:03:29 145.822/145.860
SEEDS 03 Dec 18:04:37 18:07:18 17° 65° (ENE) 18:09:58 437.485
O/OREOS (USA 219) 03 Dec 18:08:24 18:10:27 13° 310° (NW) 18:12:29 437.305
CUBESAT XI-V 03 Dec 18:08:53 18:12:27 22° 294° (WNW) 18:16:02 437.345
Cubesat XI-IV 03 Dec 18:16:55 18:21:44 33° 264° (W) 18:26:34 437.490
COMPASS 1 03 Dec 18:20:28 18:23:05 17° 65° (ENE) 18:25:42 437.405
AIST 2 03 Dec 18:23:51 18:27:19 25° 247° (WSW) 18:30:46 435.215
LilacSat-2 03 Dec 18:24:21 18:26:52 17° 267° (W) 18:29:23 437.200
NOAA 15 03 Dec 18:24:35 18:28:49 24° 266° (W) 18:33:03 137.62
CUBEBUG 2 03 Dec 18:32:01 18:35:45 23° 66° (ENE) 18:39:27 437.445
Cosmos 2504 03 Dec 18:42:14 18:48:34 25° 80° (E) 18:55:09 435.465 / 435.565
FUNcube-1 03 Dec 18:43:41 18:44:57 11° 61° (ENE) 18:46:12 145.935
CUTE 1.7 + AOD 2 03 Dec 18:49:46 18:53:59 77° 75° (ENE) 18:58:12 437.475
ISS 03 Dec 18:53:16 18:56:00 23° 341° (NNW) 18:58:45 145.825
RS-15 03 Dec 18:59:52 19:09:09 27° 260° (W) 19:18:15 29.354- 29.394
STRAND 1 03 Dec 19:00:56 19:05:53 48° 100° (E) 19:10:47 437.568
HO-68 03 Dec 19:04:24 19:11:33 75° 256° (WSW) 19:18:46 435.675
CANX-2 03 Dec 19:07:18 19:11:26 57° 260° (W) 19:15:36 2200.000
Cosmos 2491 03 Dec 19:12:00 19:20:15 49° 271° (W) 19:28:29 435.465 / 435.565
Oscar 11 03 Dec 19:15:39 19:18:56 21° 67° (ENE) 19:22:12 145.826/435.025
UWE-3 03 Dec 19:19:30 19:23:56 44° 72° (ENE) 19:28:20 435.000/436.395/437.385
NOAA 18 03 Dec 19:20:07 19:23:07 15° 270° (W) 19:26:08 137.9125
CUSAT 1 03 Dec 19:26:06 19:27:58 14° 75° (ENE) 19:30:02 437.405
AAUSAT CUBESAT 2 03 Dec 19:26:42 19:30:46 69° 75° (ENE) 19:34:53 437.432
CINEMA 3 03 Dec 19:31:58 19:36:04 27° 266° (W) 19:40:18 145.822/145.860
SEEDS 03 Dec 19:38:41 19:42:39 43° 261° (W) 19:46:39 437.485
YUBILEINY 03 Dec 19:39:44 19:48:26 77° 279° (W) 19:57:14 435.215
AIST 1 03 Dec 19:53:25 19:57:41 73° 97° (E) 20:02:02
COMPASS 1 03 Dec 19:54:22 19:58:17 42° 262° (W) 20:02:14 437.405
SO-50 03 Dec 19:55:10 19:59:21 31° 115° (ESE) 20:03:30 436.795
PCSat 03 Dec 20:00:15 20:04:59 30° 49° (NE) 20:09:42 145.827
ZACube-1 03 Dec 20:06:38 20:11:13 85° 75° (ENE) 20:15:46 437.345
CUBEBUG 2 03 Dec 20:07:39 20:12:06 39° 262° (W) 20:16:34 437.445
FUNcube-1 03 Dec 20:15:58 20:20:31 83° 257° (WSW) 20:25:03 145.935
HUMSAT D 03 Dec 20:23:49 20:27:08 23° 67° (ENE) 20:30:24 437.325/437.525
ISS 03 Dec 20:31:16 20:33:22 16° 2° (N) 20:35:28 145.825
Cosmos 2504 03 Dec 20:32:46 20:41:00 72° 280° (W) 20:49:49 435.465 / 435.565
PRISM 03 Dec 20:35:56 20:39:36 30° 97° (E) 20:43:17 437.425
STRAND 1 03 Dec 20:40:53 20:44:43 22° 297° (WNW) 20:48:32 437.568
DELFI C3 03 Dec 20:48:51 20:52:46 81° 75° (ENE) 20:56:42 145.870
Oscar 11 03 Dec 20:50:53 20:54:50 35° 263° (W) 20:58:49 145.826/435.025
ANTELSAT 03 Dec 20:54:16 20:54:29 10° 88° (E) 20:54:41 437.575/2403.000
UWE-3 03 Dec 20:57:12 21:00:33 19° 268° (W) 21:03:54 435.000/436.395/437.385
HO-68 03 Dec 20:57:48 21:00:24 12° 274° (W) 21:03:00 435.675
CUSAT 1 03 Dec 21:06:34 21:09:46 35° 262° (W) 21:13:48 437.405
DANDE 03 Dec 21:26:48 21:29:31 86° 73° (ENE) 21:32:42 436.750
SO-50 03 Dec 21:35:24 21:39:46 35° 312° (NW) 21:44:05 436.795
AIST 1 03 Dec 21:35:24 21:35:51 10° 294° (WNW) 21:36:18
YUBILEINY 03 Dec 21:41:55 21:46:53 16° 302° (WNW) 21:51:55 435.215
PCSat 03 Dec 21:43:23 21:48:32 44° 247° (WSW) 21:53:39 145.827
CUBEBUG 1 03 Dec 21:45:45 21:48:30 17° 64° (ENE) 21:51:17 437.445
VELOX 1 03 Dec 21:50:32 21:52:38 13° 61° (ENE) 21:54:44 145.980
UNISAT 6 03 Dec 21:55:44 22:00:04 51° 100° (E) 22:04:16 437.425
HUMSAT D 03 Dec 21:58:47 22:02:34 31° 263° (W) 22:06:21 437.325/437.525
ISS 03 Dec 22:07:46 22:10:41 27° 22° (NNE) 22:13:35 145.825
PRISM 03 Dec 22:11:28 22:14:45 23° 293° (WNW) 22:18:03 437.425
DX 1 03 Dec 22:12:52 22:14:39 12° 61° (ENE) 22:16:28 434.975-435.025
UKube-1 03 Dec 22:25:08 22:26:55 12° 61° (ENE) 22:28:43 .
TIGRISAT 03 Dec 22:26:31 22:30:59 79° 284° (WNW) 22:35:17 435.000
ANTELSAT 03 Dec 22:27:19 22:31:44 73° 285° (WNW) 22:36:03 437.575/2403.000
ESTCUBE 1 03 Dec 22:29:33 22:34:00 78° 76° (ENE) 22:38:31 437.505/2401.250
Cosmos 2504 03 Dec 22:31:35 22:36:13 15° 303° (WNW) 22:41:00 435.465 / 435.565
SPROUT 03 Dec 22:41:04 22:44:43 27° 68° (ENE) 22:48:22 437.525
AISAT 03 Dec 22:47:08 22:51:25 52° 72° (ENE) 22:55:46 437.250
50 SAT 03 Dec 22:58:46 23:02:10 51° 74° (ENE) 23:05:36 437.505
NANOSAT C BR1 03 Dec 23:06:45 23:10:29 30° 96° (E) 23:14:12 145.865
QB50P2 03 Dec 23:09:54 23:13:53 38° 98° (E) 23:17:49 145.880/145.840
POLYITAN 1 03 Dec 23:10:33 23:14:28 36° 97° (E) 23:18:22 437.675
CUBEBUG 1 03 Dec 23:20:11 23:24:23 48° 261° (W) 23:28:39 437.445
VELOX 1 03 Dec 23:24:10 23:28:32 65° 258° (WSW) 23:32:57 145.980
QB50P1 03 Dec 23:24:17 23:28:27 51° 100° (E) 23:32:34 145.935-145.965
JAS-2 03 Dec 23:27:57 23:33:09 75° 103° (ESE) 23:38:31 435.910
DUCHIFAT 1 03 Dec 23:30:02 23:34:10 50° 100° (E) 23:38:15 145.980
UNISAT 6 03 Dec 23:33:38 23:36:20 16° 297° (WNW) 23:38:59 437.425
Cosmos 2499 03 Dec 23:41:12 23:48:26 33° 83° (E) 23:55:56 435.465 / 435.565
ISS 03 Dec 23:44:06 23:47:20 50° 220° (SW) 23:50:32 145.825
POPSAT HIP 1 03 Dec 23:45:29 23:49:46 88° 95° (E) 23:53:59 437.405
DX 1 03 Dec 23:45:57 23:50:15 69° 257° (WSW) 23:54:38 434.975-435.025
UKube-1 03 Dec 23:58:06 00:02:23 68° 259° (WSW) 00:06:42 .
AUBIESAT-1 04 Dec 00:09:10 00:11:25 14° 56° (NE) 00:13:44 437.475
TISAT 1 04 Dec 00:11:27 00:15:28 44° 72° (ENE) 00:19:32 437.305
SPROUT 04 Dec 00:16:55 00:20:34 27° 265° (W) 00:24:15 437.525
GONETS M04 04 Dec 00:17:04 00:25:20 50° 89° (E) 00:33:34
M-CUBED/EXP-1 PRIME 04 Dec 00:18:14 00:21:18 21° 59° (ENE) 00:24:33 437.505
AISAT 04 Dec 00:25:44 00:28:12 15° 269° (W) 00:30:41 437.250
SWISSCUBE 04 Dec 00:30:40 00:33:57 19° 63° (ENE) 00:37:14 437.505
BEESAT 04 Dec 00:35:00 00:38:16 19° 63° (ENE) 00:41:32 436.000
BUGSAT 1 04 Dec 00:37:15 00:41:28 73° 285° (WNW) 00:45:35 437.445
NANOSAT C BR1 04 Dec 00:42:41 00:46:04 24° 293° (WNW) 00:49:26 145.865
Gurwin Techsat 1B 04 Dec 00:46:13 00:49:25 16° 90° (E) 00:52:38 435.225
QB50P2 04 Dec 00:46:21 00:49:24 20° 295° (WNW) 00:52:27 145.880/145.840
POLYITAN 1 04 Dec 00:46:54 00:50:02 20° 294° (WNW) 00:53:08 437.675
O/OREOS (USA 219) 04 Dec 00:57:10 01:00:20 18° 54° (NE) 01:03:28 437.305
ITUPSAT 1 04 Dec 00:59:53 01:04:04 31° 67° (ENE) 01:08:15 437.325
QB50P1 04 Dec 01:01:21 01:03:47 15° 297° (WNW) 01:06:11 145.935-145.965
DUCHIFAT 1 04 Dec 01:07:00 01:09:25 15° 296° (WNW) 01:11:49 145.980
Oscar 19 04 Dec 01:08:30 01:13:34 50° 100° (E) 01:18:36 437.125/150
JAS-2 04 Dec 01:15:03 01:17:40 14° 301° (WNW) 01:20:17 435.910
PHONESAT 2.4 04 Dec 01:22:01 01:24:11 22° 158° (SSE) 01:26:21 2401.200-2431.200
Cosmos 2499 04 Dec 01:32:42 01:41:02 58° 283° (WNW) 01:49:48 435.465 / 435.565
AO-85 04 Dec 01:38:32 01:42:41 27° 114° (ESE) 01:46:37 145.980
AUBIESAT-1 04 Dec 01:41:13 01:45:13 63° 254° (WSW) 01:49:34 437.475
TISAT 1 04 Dec 01:48:40 01:51:19 16° 268° (W) 01:53:59 437.305
M-CUBED/EXP-1 PRIME 04 Dec 01:51:44 01:55:28 38° 258° (WSW) 01:59:32 437.505
AO-7 04 Dec 01:57:04 02:01:16 14° 88° (E) 02:05:26 29.400- 29.500
MOZHAYETS 4 04 Dec 02:01:35 02:05:34 30° 69° (ENE) 02:09:34
SWISSCUBE 04 Dec 02:06:42 02:11:21 51° 260° (W) 02:16:00 437.505
BEESAT 04 Dec 02:11:00 02:15:39 51° 260° (W) 02:20:19 436.000
GONETS M04 04 Dec 02:14:25 02:22:19 37° 289° (WNW) 02:30:15
Gurwin Techsat 1B 04 Dec 02:24:33 02:29:50 66° 287° (WNW) 02:35:05 435.225
O/OREOS (USA 219) 04 Dec 02:35:41 02:40:00 48° 253° (WSW) 02:44:17 437.305
ITUPSAT 1 04 Dec 02:37:42 02:41:50 29° 264° (W) 02:46:01 437.325
Oscar 19 04 Dec 02:48:39 02:52:31 22° 297° (WNW) 02:56:24 437.125/150
KKS-1 04 Dec 02:48:47 02:52:58 41° 70° (ENE) 02:57:11 437.445
PHONESAT 2.4 04 Dec 02:56:35 02:59:12 57° 173° (S) 03:01:49 2401.200-2431.200
STARS 04 Dec 03:01:53 03:05:36 27° 67° (ENE) 03:09:20 437.465
ITAMSAT 1 04 Dec 03:10:44 03:15:57 80° 104° (ESE) 03:21:08 435.822/435.867
AO-85 04 Dec 03:18:25 03:23:00 39° 309° (NW) 03:27:16 145.980
Cosmos 2499 04 Dec 03:33:22 03:36:25 12° 307° (NW) 03:39:31 435.465 / 435.565
CUBESAT XI-V 04 Dec 03:34:33 03:38:49 39° 71° (ENE) 03:43:06 437.345
MOZHAYETS 4 04 Dec 03:38:47 03:42:41 27° 265° (W) 03:46:37
AO-7 04 Dec 03:46:53 03:55:18 77° 107° (ESE) 04:03:41 29.400- 29.500
YUBILEINY 04 Dec 03:56:52 03:58:54 11° 53° (NE) 04:00:55 435.215
BRITE-PL 04 Dec 04:04:05 04:07:56 19° 92° (E) 04:11:53 437.365/2234.400
BEESAT 3 04 Dec 04:13:49 04:14:52 11° 108° (ESE) 04:15:56 437.485
SO-50 04 Dec 04:25:51 04:29:56 32° 47° (NE) 04:33:57 436.795
KKS-1 04 Dec 04:26:29 04:29:41 19° 267° (W) 04:32:55 437.445
PHONESAT 2.4 04 Dec 04:31:45 04:34:20 46° 191° (S) 04:36:54 2401.200-2431.200
STARS 04 Dec 04:37:59 04:41:51 29° 264° (W) 04:45:44 437.465
ITAMSAT 1 04 Dec 04:52:03 04:54:44 14° 301° (WNW) 04:57:24 435.822/435.867
Cubesat XI-IV 04 Dec 04:55:42 04:57:36 12° 88° (E) 04:59:29 437.490
NOAA 15 04 Dec 04:59:55 05:02:52 15° 90° (E) 05:05:48 137.62
CUBESAT XI-V 04 Dec 05:12:56 05:16:20 20° 267° (W) 05:19:46 437.345
GOMX 1 04 Dec 05:28:49 05:34:09 51° 99° (E) 05:39:29 467.674
HORYU 2 04 Dec 05:30:01 05:34:29 89° 102° (ESE) 05:38:54 437.375
AO-7 04 Dec 05:40:41 05:47:16 27° 306° (NW) 05:53:53 29.400- 29.500
BRITE-PL 04 Dec 05:41:25 05:46:39 59° 287° (WNW) 05:52:10 437.365/2234.400
BEESAT 3 04 Dec 05:48:03 05:51:56 65° 305° (NW) 05:55:52 437.485
YUBILEINY 04 Dec 05:49:22 05:58:02 56° 77° (ENE) 06:06:39 435.215
DOVE 4 04 Dec 05:51:02 05:55:56 36° 96° (E) 06:00:42 437.250
LilacSat-2 04 Dec 05:55:39 05:59:20 48° 100° (E) 06:02:58 437.200
NOAA 18 04 Dec 05:58:26 06:03:18 30° 96° (E) 06:08:06 137.9125
AIST 1 04 Dec 06:00:39 06:03:51 19° 71° (ENE) 06:07:02
SO-50 04 Dec 06:06:23 06:10:21 31° 246° (WSW) 06:14:15 436.795
PHONESAT 2.4 04 Dec 06:07:36 06:09:14 15° 206° (SSW) 06:10:51 2401.200-2431.200
CUTE-I 04 Dec 06:07:46 06:13:02 58° 101° (E) 06:18:16 437.470
BEESAT 2 04 Dec 06:12:19 06:16:15 79° 303° (WNW) 06:20:15 435.950
Cosmos 2491 04 Dec 06:17:02 06:25:04 42° 87° (E) 06:33:05 435.465 / 435.565
STRAND 1 04 Dec 06:17:02 06:22:09 73° 74° (ENE) 06:27:17 437.568
Cosmos 2504 04 Dec 06:25:10 06:33:40 47° 74° (ENE) 06:41:42 435.465 / 435.565
HO-68 04 Dec 06:32:47 06:38:00 21° 91° (E) 06:43:10 435.675
Cubesat XI-IV 04 Dec 06:32:58 06:38:20 85° 285° (WNW) 06:43:40 437.490
CUTE 1.7 + AOD 2 04 Dec 06:35:57 06:37:50 13° 90° (E) 06:39:42 437.475
NOAA 15 04 Dec 06:37:52 06:43:07 69° 287° (WNW) 06:48:22 137.62
CANX-2 04 Dec 06:52:15 06:55:37 23° 94° (E) 06:58:57 2200.000
GOMX 1 04 Dec 07:07:37 07:11:50 24° 295° (WNW) 07:16:05 467.674
RS-15 04 Dec 07:08:31 07:19:45 56° 112° (ESE) 07:31:30 29.354- 29.394
AAUSAT CUBESAT 2 04 Dec 07:11:16 07:11:51 10° 89° (E) 07:12:25 437.432
SEEDS 04 Dec 07:22:03 07:25:40 28° 96° (E) 07:29:17 437.485
CINEMA 3 04 Dec 07:25:28 07:30:22 79° 101° (E) 07:35:01 145.822/145.860
PRISM 04 Dec 07:25:57 07:29:10 23° 67° (ENE) 07:32:24 437.425
DOVE 4 04 Dec 07:28:53 07:33:27 30° 293° (WNW) 07:37:57 437.250
LilacSat-2 04 Dec 07:31:34 07:33:11 12° 296° (WNW) 07:34:48 437.200
COMPASS 1 04 Dec 07:36:41 07:40:14 27° 95° (E) 07:43:48 437.405
AIST 1 04 Dec 07:37:30 07:41:35 37° 269° (W) 07:45:38
NOAA 18 04 Dec 07:38:54 07:43:59 38° 293° (WNW) 07:49:01 137.9125
YUBILEINY 04 Dec 07:46:51 07:54:21 33° 276° (W) 08:01:52 435.215
CUTE-I 04 Dec 07:48:52 07:52:37 20° 298° (WNW) 07:56:21 437.470
TIGRISAT 04 Dec 07:52:09 07:53:29 11° 60° (ENE) 07:54:49 435.000
ANTELSAT 04 Dec 07:52:35 07:54:20 12° 61° (ENE) 07:56:04 437.575/2403.000
BEESAT 2 04 Dec 07:53:27 07:54:44 11° 323° (NW) 07:56:02 435.950
ZACube-1 04 Dec 07:56:06 07:58:35 15° 91° (E) 08:01:01 437.345
CUBEBUG 2 04 Dec 07:58:07 08:02:21 42° 98° (E) 08:06:25 437.445
STRAND 1 04 Dec 07:59:19 08:01:51 14° 270° (W) 08:04:22 437.568
FUNcube-1 04 Dec 08:04:47 08:07:36 17° 92° (E) 08:10:22 145.935
CUTE 1.7 + AOD 2 04 Dec 08:09:52 08:14:00 55° 286° (WNW) 08:18:06 437.475
Cosmos 2491 04 Dec 08:13:34 08:21:49 44° 287° (WNW) 08:30:06 435.465 / 435.565
Cubesat XI-IV 04 Dec 08:15:26 08:17:34 12° 303° (WNW) 08:19:42 437.490
Cosmos 2504 04 Dec 08:18:53 08:26:51 40° 275° (W) 08:34:27 435.465 / 435.565
HO-68 04 Dec 08:19:09 08:26:21 74° 289° (WNW) 08:33:30 435.675
AIST 2 04 Dec 08:20:40 08:24:41 60° 119° (ESE) 08:28:47 435.215
CANX-2 04 Dec 08:27:47 08:31:29 30° 290° (WNW) 08:35:10 2200.000
CUSAT 1 04 Dec 08:32:02 08:32:14 10° 94° (E) 08:32:25 437.405
Oscar 11 04 Dec 08:37:15 08:41:17 38° 98° (E) 08:45:18 145.826/435.025
AAUSAT CUBESAT 2 04 Dec 08:43:37 08:47:44 65° 285° (WNW) 08:51:50 437.432
UWE-3 04 Dec 08:45:00 08:49:23 89° 129° (SE) 08:53:35 435.000/436.395/437.385
UNISAT 6 04 Dec 08:54:17 08:58:49 48° 72° (ENE) 09:03:18 437.425
SEEDS 04 Dec 08:57:51 09:01:15 25° 292° (WNW) 09:04:40 437.485
PRISM 04 Dec 09:00:48 09:04:19 28° 263° (W) 09:07:54 437.425
CINEMA 3 04 Dec 09:04:37 09:06:45 13° 300° (WNW) 09:08:52 145.822/145.860
COMPASS 1 04 Dec 09:12:16 09:15:41 25° 292° (WNW) 09:19:05 437.405
RS-15 04 Dec 09:20:57 09:32:27 52° 316° (NW) 09:44:27 29.354- 29.394
TIGRISAT 04 Dec 09:24:45 09:29:26 88° 249° (WSW) 09:34:09 435.000
ANTELSAT 04 Dec 09:25:40 09:30:22 82° 256° (WSW) 09:35:04 437.575/2403.000
ZACube-1 04 Dec 09:31:03 09:35:08 45° 288° (WNW) 09:39:07 437.345
Cosmos 2499 04 Dec 09:34:14 09:36:57 12° 53° (NE) 09:39:36 435.465 / 435.565
CUBEBUG 2 04 Dec 09:35:33 09:38:37 19° 296° (WNW) 09:41:38 437.445
FUNcube-1 04 Dec 09:40:04 09:44:02 39° 289° (WNW) 09:47:54 145.935
JAS-2 04 Dec 09:40:22 09:46:11 36° 68° (ENE) 09:51:27 435.910
HUMSAT D 04 Dec 09:41:16 09:45:03 36° 98° (E) 09:48:49 437.325/437.525
NANOSAT C BR1 04 Dec 09:59:17 10:02:45 25° 68° (ENE) 10:06:13 145.865
DELFI C3 04 Dec 10:00:15 10:04:11 64° 286° (WNW) 10:08:08 145.870
AIST 2 04 Dec 10:00:44 10:03:32 17° 318° (NW) 10:06:22 435.215
QB50P2 04 Dec 10:02:47 10:06:33 30° 69° (ENE) 10:10:19 145.880/145.840
POLYITAN 1 04 Dec 10:03:25 10:07:09 29° 69° (ENE) 10:10:53 437.675
HO-68 04 Dec 10:08:58 10:12:52 16° 309° (NW) 10:16:46 435.675
AO-85 04 Dec 10:09:35 10:12:50 23° 45° (NE) 10:15:59 145.980
CUSAT 1 04 Dec 10:11:10 10:13:58 25° 283° (WNW) 10:16:23 437.405
Oscar 11 04 Dec 10:14:03 10:17:09 20° 294° (WNW) 10:20:14 145.826/435.025
QB50P1 04 Dec 10:16:49 10:20:48 40° 71° (ENE) 10:24:49 145.935-145.965
DUCHIFAT 1 04 Dec 10:21:58 10:25:55 39° 71° (ENE) 10:29:54 145.980
ESTCUBE 1 04 Dec 10:22:46 10:25:31 16° 91° (E) 10:28:16 437.505/2401.250
GONETS M04 04 Dec 10:27:01 10:33:53 25° 65° (ENE) 10:40:42
UNISAT 6 04 Dec 10:32:34 10:35:45 18° 268° (W) 10:38:54 437.425
DANDE 04 Dec 10:35:01 10:40:00 73° 279° (W) 10:43:44 436.750
POPSAT HIP 1 04 Dec 10:37:49 10:42:05 68° 74° (ENE) 10:46:21 437.405
PCSat 04 Dec 10:43:16 10:47:20 22° 107° (ESE) 10:51:26 145.827
Oscar 19 04 Dec 10:51:37 10:52:22 10° 56° (ENE) 10:53:07 437.125/150
CUBEBUG 1 04 Dec 11:08:21 11:12:14 29° 96° (E) 11:16:05 437.445
VELOX 1 04 Dec 11:14:16 11:17:48 23° 94° (E) 11:21:19 145.980
HUMSAT D 04 Dec 11:17:34 11:20:24 18° 294° (WNW) 11:23:13 437.325/437.525
Cosmos 2499 04 Dec 11:23:48 11:32:21 58° 76° (ENE) 11:40:17 435.465 / 435.565
JAS-2 04 Dec 11:25:09 11:31:13 37° 262° (W) 11:36:40 435.910
BUGSAT 1 04 Dec 11:26:41 11:30:53 80° 77° (ENE) 11:35:09 437.445
DX 1 04 Dec 11:34:25 11:37:37 19° 94° (E) 11:40:48 434.975-435.025
NANOSAT C BR1 04 Dec 11:34:35 11:38:21 29° 264° (W) 11:42:06 145.865
QB50P2 04 Dec 11:38:53 11:42:20 24° 265° (W) 11:45:49 145.880/145.840
RS-15 04 Dec 11:39:14 11:48:53 26° 348° (NNW) 11:58:41 29.354- 29.394
POLYITAN 1 04 Dec 11:39:22 11:42:54 25° 265° (W) 11:46:28 437.675
UKube-1 04 Dec 11:45:30 11:48:36 19° 94° (E) 11:51:41 .
AO-85 04 Dec 11:49:44 11:53:18 33° 244° (WSW) 11:56:48 145.980
QB50P1 04 Dec 11:53:47 11:56:43 18° 267° (W) 11:59:41 145.935-145.965
50 SAT 04 Dec 11:57:28 12:00:58 56° 100° (E) 12:04:28 437.505
ESTCUBE 1 04 Dec 11:58:14 12:02:36 50° 288° (WNW) 12:06:58 437.505/2401.250
DUCHIFAT 1 04 Dec 11:58:47 12:01:44 18° 267° (W) 12:04:44 145.980
SPROUT 04 Dec 12:01:29 12:05:39 48° 99° (E) 12:09:47 437.525
Gurwin Techsat 1B 04 Dec 12:07:16 12:11:42 28° 65° (ENE) 12:16:09 435.225
AISAT 04 Dec 12:12:51 12:17:21 81° 285° (WNW) 12:21:49 437.250
POPSAT HIP 1 04 Dec 12:17:20 12:18:17 11° 271° (W) 12:19:15 437.405
GONETS M04 04 Dec 12:22:53 12:31:34 74° 266° (W) 12:40:15
PCSat 04 Dec 12:25:02 12:30:20 54° 304° (NW) 12:35:40 145.827
Oscar 19 04 Dec 12:25:41 12:30:47 76° 74° (ENE) 12:35:56 437.125/150
BEESAT 3 04 Dec 12:28:52 12:30:14 11° 37° (NE) 12:31:37 437.485
CUBEBUG 1 04 Dec 12:44:41 12:48:25 27° 292° (WNW) 12:52:08 437.445
VELOX 1 04 Dec 12:50:16 12:54:20 35° 290° (WNW) 12:58:21 145.980
ITAMSAT 1 04 Dec 12:52:01 12:55:23 18° 61° (ENE) 12:58:44 435.822/435.867
BEESAT 2 04 Dec 12:54:26 12:55:09 10° 36° (NE) 12:55:51 435.950
AO-7 04 Dec 12:56:06 13:02:29 26° 53° (NE) 13:08:53 29.400- 29.500
DX 1 04 Dec 13:09:50 13:13:56 39° 290° (WNW) 13:18:00 434.975-435.025
Cosmos 2499 04 Dec 13:17:43 13:24:54 31° 278° (W) 13:31:42 435.465 / 435.565
UKube-1 04 Dec 13:20:43 13:24:46 39° 290° (WNW) 13:28:48 .
TISAT 1 04 Dec 13:30:03 13:34:18 75° 101° (ESE) 13:38:29 437.305
M-CUBED/EXP-1 PRIME 04 Dec 13:31:02 13:33:49 16° 95° (E) 13:36:34 437.505
SPROUT 04 Dec 13:38:31 13:41:11 16° 296° (WNW) 13:43:50 437.525
Gurwin Techsat 1B 04 Dec 13:46:30 13:51:27 39° 262° (W) 13:56:27 435.225
BEESAT 3 04 Dec 14:04:31 14:08:32 80° 57° (ENE) 14:12:30 437.485
SWISSCUBE 04 Dec 14:06:20 14:10:47 38° 98° (E) 14:15:11 437.505
Oscar 19 04 Dec 14:08:25 14:10:40 13° 271° (W) 14:12:56 437.125/150
